Regional Weather Roundup
Issued by NWS Albany, NY

Home | Current Version | Previous Version | Text Only | Print | Product List | Glossary Off
Versions: 1 2 3 4 5 6 7 8 9 10 11 12 13 14 15 16 17 18 19 20 21 22 23 24 25 26 27 28 29 30 31 32 33 34 35 36 37 38 39 40 41 42 43 44 45 46 47 48 49 50

000
ASUS41 KALY 190410
RWRALY

NEW YORK STATE HOURLY WEATHER ROUNDUP
NATIONAL WEATHER SERVICE ALBANY NY
1100 PM EST SUN FEB 18 2018

NOTE: "FAIR" INDICATES FEW OR NO CLOUDS BELOW 12,000 FEET WITH NO
SIGNIFICANT WEATHER AND/OR NO OBSTRUCTIONS TO VISIBILITY.

NYZ032-033-038>043-046>054-057>066-NYZ062>081-082-084-190500-
EAST


CITY           SKY/WX    TMP DP  RH WIND       PRES   REMARKS
ALBANY         FAIR      24  18  77 CALM      30.49F
GLENS FALLS    FAIR      21  17  84 CALM      30.46S
POUGHKEEPSIE   FAIR      25  21  85 W5        30.51S WCI  19
NEWBURGH       CLEAR     27  23  86 CALM      30.51R
MONTGOMERY     FAIR      22  19  89 CALM      30.49R
WHITE PLAINS   FAIR      27  22  81 CALM      30.50R
ISLIP          FAIR      31  25  78 NE6       30.52S WCI  25
NEW YORK CITY  FAIR      38  24  57 E5        30.52R WCI  34
CENTRAL PARK   FAIR      38  23  55 E5        30.54R WCI  34
$$

NYZ005>009-017-018-044>046-055-056-190500-
CENTRAL


CITY           SKY/WX    TMP DP  RH WIND       PRES   REMARKS
FULTON         FAIR      30  20  66 SE7       30.36F WCI  23
SYRACUSE       FAIR      27  21  78 SE6       30.38F WCI  20
ROME           FAIR      25  20  81 E8        30.43S WCI  16
ELMIRA         FAIR      26  24  92 CALM      30.36F
BINGHAMTON     FAIR      26  19  74 S8        30.36F WCI  18
MONTICELLO     FAIR      23  19  85 E5        30.46R WCI  17
$$

NYZ026>034-041>043-087-190500-
NORTH


CITY           SKY/WX    TMP DP  RH WIND       PRES   REMARKS
WATERTOWN      FAIR      28  24  85 CALM      30.36S
FORT DRUM      NOT AVBL
OGDENSBURG     FAIR      24  21  89 CALM      30.37S
MASSENA        FAIR      25  23  92 CALM      30.40R
SARANAC LAKE   FLURRIES  21  18  88 SW5       30.31F WCI  15
PLATTSBURGH    FAIR      26  19  74 SW3       30.39F
$$

NYZ001>004-010>016-019>021-085-190500-
WEST


CITY           SKY/WX    TMP DP  RH WIND       PRES   REMARKS
NIAGARA FALLS  FAIR      30  20  66 SE7       30.25F WCI  23
BUFFALO        FAIR      30  23  75 SE7       30.25F WCI  23
DUNKIRK        FAIR      35  25  66 S9        30.25F WCI  28
JAMESTOWN        N/A    N/A N/A N/A MISG        N/A
WELLSVILLE     FAIR      29  21  72 S8        30.27F WCI  21
ROCHESTER      MOCLDY    32  22  66 SE12      30.30F WCI  23
PENN YAN       FAIR      27  21  78 SW6       30.33F WCI  20
$$

             KEY
       WCI = WIND CHILL INDEX
       VSB = VISIBILITY
       HX  = HEAT INDEX
$$



USA.gov is the U.S. government's official web portal to all federal, state and local government web resources and services.